| time (UTC) | temp C | wind direction | speed KPH | gust KPH | rain 1hr cm | rain 24hr cm | rain mn cm | humidity % | barometer mb |
| 20260903105503 | 10 | 147 | 0.0 | 3.2 | 0.00 | 0.00 | 0.00 | 69 | 1019.8 |
| 20260903105004 | 10 | 147 | 0.0 | 3.2 | 0.00 | 0.00 | 0.00 | 69 | 1019.8 |
| 20260903104514 | 10 | 147 | 0.0 | 3.2 | 0.00 | 0.00 | 0.00 | 69 | 1019.7 |
| 20260903104005 | 10 | 147 | 0.0 | 3.2 | 0.00 | 0.00 | 0.00 | 69 | 1019.7 |
| 20260903103508 | 10 | 147 | 0.0 | 1.6 | 0.00 | 0.00 | 0.00 | 68 | 1019.6 |
| 20260903103008 | 10 | 147 | 0.0 | 1.6 | 0.00 | 0.00 | 0.00 | 68 | 1019.5 |
| 20260903102504 | 10 | 147 | 0.0 | 1.6 | 0.00 | 0.00 | 0.00 | 68 | 1019.4 |
| 20260903102009 | 10 | 147 | 0.0 | 1.6 | 0.00 | 0.00 | 0.00 | 68 | 1019.2 |
| 20260903101512 | 10 | 147 | 0.0 | 3.2 | 0.00 | 0.00 | 0.00 | 67 | 1019.2 |
| 20260903101004 | 10 | 147 | 0.0 | 4.8 | 0.00 | 0.00 | 0.00 | 67 | 1019.2 |
| 20260903100503 | 10 | 147 | 0.0 | 4.8 | 0.00 | 0.00 | 0.00 | 67 | 1019.1 |
| 20260903100005 | 10 | 147 | 3.2 | 4.8 | 0.00 | 0.00 | 0.00 | 66 | 1019.1 |
| 20260903095504 | 10 | 147 | 3.2 | 4.8 | 0.00 | 0.00 | 0.00 | 67 | 1019.0 |
| 20260903095005 | 10 | 276 | 0.0 | 3.2 | 0.00 | 0.00 | 0.00 | 67 | 1018.9 |
| 20260903094503 | 10 | 276 | 0.0 | 3.2 | 0.00 | 0.00 | 0.00 | 66 | 1018.9 |
| 20260903094006 | 10 | 276 | 1.6 | 4.8 | 0.00 | 0.00 | 0.00 | 66 | 1018.9 |
| 20260903093506 | 10 | 276 | 1.6 | 4.8 | 0.00 | 0.00 | 0.00 | 65 | 1018.7 |
| 20260903093012 | 10 | 266 | 3.2 | 4.8 | 0.00 | 0.00 | 0.00 | 65 | 1018.7 |
| 20260903092507 | 10 | 191 | 0.0 | 3.2 | 0.00 | 0.00 | 0.00 | 66 | 1018.6 |
| 20260903092006 | 10 | 191 | 0.0 | 3.2 | 0.00 | 0.00 | 0.00 | 65 | 1018.6 |
| 20260903091531 | 10 | 191 | 0.0 | 3.2 | 0.00 | 0.00 | 0.00 | 65 | 1018.6 |
| 20260903091006 | 10 | 191 | 0.0 | 3.2 | 0.00 | 0.00 | 0.00 | 64 | 1018.5 |
| 20260903090503 | 11 | 191 | 0.0 | 4.8 | 0.00 | 0.00 | 0.00 | 64 | 1018.4 |
| 20260903090023 | 11 | 191 | 0.0 | 4.8 | 0.00 | 0.00 | 0.00 | 64 | 1018.4 |
| 20260903085505 | 11 | 191 | 1.6 | 6.4 | 0.00 | 0.00 | 0.00 | 63 | 1018.3 |
| 20260903085006 | 11 | 203 | 1.6 | 11.3 | 0.00 | 0.00 | 0.00 | 62 | 1018.1 |
| 20260903084509 | 11 | 233 | 3.2 | 12.9 | 0.00 | 0.00 | 0.00 | 62 | 1018.0 |
| 20260903084004 | 11 | 219 | 4.8 | 12.9 | 0.00 | 0.00 | 0.00 | 63 | 1018.0 |
| 20260903083507 | 11 | 258 | 3.2 | 12.9 | 0.00 | 0.00 | 0.00 | 62 | 1017.8 |
| 20260903083008 | 11 | 253 | 4.8 | 12.9 | 0.00 | 0.00 | 0.00 | 62 | 1017.7 |
| 20260903082508 | 12 | 264 | 3.2 | 11.3 | 0.00 | 0.00 | 0.00 | 61 | 1017.5 |
| 20260903082007 | 12 | 261 | 4.8 | 11.3 | 0.00 | 0.00 | 0.00 | 61 | 1017.4 |
| 20260903081505 | 12 | 249 | 3.2 | 9.7 | 0.00 | 0.00 | 0.00 | 61 | 1017.4 |
| 20260903081018 | 12 | 249 | 3.2 | 12.9 | 0.00 | 0.00 | 0.00 | 61 | 1017.4 |
| 20260903080515 | 12 | 248 | 4.8 | 12.9 | 0.00 | 0.00 | 0.00 | 61 | 1017.3 |
| 20260903080023 | 12 | 250 | 3.2 | 14.5 | 0.00 | 0.00 | 0.00 | 62 | 1017.3 |
| 20260903075513 | 12 | 270 | 4.8 | 14.5 | 0.00 | 0.00 | 0.00 | 62 | 1017.2 |
| 20260903075005 | 12 | 254 | 4.8 | 14.5 | 0.00 | 0.00 | 0.00 | 58 | 1017.1 |
| 20260903074525 | 13 | 248 | 3.2 | 14.5 | 0.00 | 0.00 | 0.00 | 58 | 1016.9 |
| 20260903074011 | 13 | 254 | 4.8 | 17.7 | 0.00 | 0.00 | 0.00 | 58 | 1016.8 |
| 20260903073505 | 13 | 260 | 8.0 | 17.7 | 0.00 | 0.00 | 0.00 | 58 | 1016.7 |
| 20260903073028 | 13 | 275 | 6.4 | 14.5 | 0.00 | 0.00 | 0.00 | 58 | 1016.7 |
| 20260903072506 | 13 | 244 | 6.4 | 14.5 | 0.00 | 0.00 | 0.00 | 58 | 1016.6 |
| 20260903072003 | 13 | 243 | 4.8 | 11.3 | 0.00 | 0.00 | 0.00 | 59 | 1016.4 |
| 20260903071521 | 13 | 263 | 4.8 | 12.9 | 0.00 | 0.00 | 0.00 | 61 | 1016.3 |
| 20260903071007 | 13 | 283 | 8.0 | 12.9 | 0.00 | 0.00 | 0.00 | 61 | 1016.2 |
| 20260903070516 | 13 | 282 | 1.6 | 6.4 | 0.00 | 0.00 | 0.00 | 64 | 1016.0 |
| 20260903070023 | 13 | 289 | 3.2 | 11.3 | 0.00 | 0.00 | 0.00 | 67 | 1016.0 |
| 20260903065509 | 13 | 285 | 3.2 | 14.5 | 0.00 | 0.00 | 0.00 | 69 | 1016.0 |
| 20260903065011 | 14 | 259 | 6.4 | 14.5 | 0.00 | 0.00 | 0.00 | 68 | 1015.8 |
| 20260903064514 | 14 | 293 | 8.0 | 19.3 | 0.00 | 0.00 | 0.00 | 67 | 1015.5 |
| 20260903064012 | 15 | 311 | 12.9 | 19.3 | 0.00 | 0.00 | 0.00 | 65 | 1015.3 |
| 20260903063515 | 15 | 14 | 6.4 | 16.1 | 0.00 | 0.00 | 0.00 | 64 | 1015.3 |
| 20260903063011 | 15 | 322 | 9.7 | 16.1 | 0.00 | 0.00 | 0.00 | 66 | 1015.3 |
| 20260903062516 | 15 | 299 | 8.0 | 16.1 | 0.00 | 0.00 | 0.00 | 71 | 1015.3 |
| 20260903062012 | 14 | 308 | 4.8 | 16.1 | 0.00 | 0.00 | 0.00 | 73 | 1015.3 |
| 20260903061513 | 14 | 320 | 9.7 | 24.1 | 0.00 | 0.00 | 0.00 | 73 | 1015.2 |
| 20260903061015 | 14 | 335 | 9.7 | 24.1 | 0.00 | 0.00 | 0.00 | 72 | 1015.3 |
| 20260903060508 | 13 | 322 | 6.4 | 17.7 | 0.00 | 0.00 | 0.00 | 73 | 1015.3 |
| 20260903060014 | 13 | 35 | 4.8 | 22.5 | 0.00 | 0.00 | 0.00 | 72 | 1015.2 |
| 20260903055513 | 13 | 358 | 8.0 | 22.5 | 0.00 | 0.00 | 0.00 | 72 | 1015.0 |
| 20260903055007 | 13 | 11 | 11.3 | 17.7 | 0.00 | 0.00 | 0.00 | 72 | 1015.1 |
| 20260903054522 | 13 | 13 | 3.2 | 17.7 | 0.00 | 0.00 | 0.00 | 72 | 1015.1 |
| 20260903054013 | 13 | 25 | 9.7 | 19.3 | 0.00 | 0.00 | 0.00 | 72 | 1015.2 |
| 20260903053504 | 13 | 43 | 4.8 | 19.3 | 0.00 | 0.00 | 0.00 | 72 | 1015.2 |
| 20260903053027 | 13 | 318 | 12.9 | 19.3 | 0.00 | 0.00 | 0.00 | 71 | 1015.2 |
| 20260903052510 | 13 | 341 | 8.0 | 16.1 | 0.00 | 0.00 | 0.00 | 72 | 1015.1 |
| 20260903052015 | 13 | 308 | 11.3 | 22.5 | 0.00 | 0.00 | 0.00 | 70 | 1015.1 |
| 20260903051525 | 14 | 315 | 14.5 | 22.5 | 0.00 | 0.00 | 0.00 | 62 | 1015.0 |
| 20260903051010 | 15 | 282 | 11.3 | 22.5 | 0.00 | 0.00 | 0.00 | 58 | 1015.0 |
| 20260903050514 | 15 | 283 | 12.9 | 22.5 | 0.00 | 0.00 | 0.00 | 58 | 1014.7 |
| 20260903050033 | 15 | 280 | 16.1 | 22.5 | 0.00 | 0.00 | 0.00 | 59 | 1014.7 |
| 20260903045510 | 15 | 262 | 8.0 | 27.4 | 0.00 | 0.00 | 0.00 | 62 | 1014.6 |
| 20260903045007 | 14 | 242 | 14.5 | 29.0 | 0.00 | 0.00 | 0.00 | 60 | 1014.8 |
| 20260903044517 | 15 | 233 | 19.3 | 29.0 | 0.00 | 0.00 | 0.00 | 59 | 1014.8 |
| 20260903044010 | 15 | 268 | 12.9 | 27.4 | 0.00 | 0.00 | 0.00 | 59 | 1014.8 |
| 20260903043512 | 15 | 236 | 16.1 | 22.5 | 0.00 | 0.00 | 0.00 | 63 | 1014.7 |
| 20260903043015 | 15 | 237 | 11.3 | 22.5 | 0.00 | 0.00 | 0.00 | 66 | 1014.8 |
| 20260903042518 | 15 | 265 | 8.0 | 17.7 | 0.00 | 0.00 | 0.00 | 69 | 1014.8 |
| 20260903042015 | 14 | 270 | 4.8 | 16.1 | 0.00 | 0.00 | 0.00 | 70 | 1014.7 |
| 20260903041535 | 13 | 235 | 1.6 | 16.1 | 0.00 | 0.00 | 0.00 | 72 | 1014.8 |
| 20260903041015 | 13 | 220 | 3.2 | 16.1 | 0.00 | 0.00 | 0.00 | 73 | 1014.9 |
| 20260903040510 | 13 | 189 | 6.4 | 17.7 | 0.00 | 0.00 | 0.00 | 73 | 1014.9 |
| 20260903040032 | 12 | 219 | 6.4 | 20.9 | 0.00 | 0.00 | 0.00 | 74 | 1014.8 |
| 20260903035514 | 12 | 193 | 12.9 | 32.2 | 0.00 | 0.00 | 0.00 | 74 | 1014.6 |
| 20260903035010 | 12 | 161 | 14.5 | 32.2 | 0.00 | 0.00 | 0.00 | 74 | 1014.6 |
| 20260903034535 | 12 | 100 | 6.4 | 25.7 | 0.00 | 0.00 | 0.00 | 76 | 1014.7 |
| 20260903034009 | 12 | 320 | 4.8 | 14.5 | 0.00 | 0.00 | 0.00 | 76 | 1014.5 |
| 20260903033512 | 12 | 299 | 6.4 | 27.4 | 0.00 | 0.00 | 0.00 | 77 | 1014.3 |
| 20260903033020 | 12 | 93 | 3.2 | 27.4 | 0.00 | 0.00 | 0.00 | 77 | 1013.9 |
| 20260903032514 | 12 | 348 | 8.0 | 29.0 | 0.00 | 0.00 | 0.00 | 77 | 1014.0 |
| 20260903032011 | 12 | 12 | 16.1 | 29.0 | 0.00 | 0.00 | 0.00 | 77 | 1014.0 |
| 20260903031534 | 12 | 6 | 14.5 | 30.6 | 0.00 | 0.00 | 0.00 | 77 | 1013.9 |
| 20260903031016 | 12 | 7 | 12.9 | 30.6 | 0.00 | 0.00 | 0.00 | 77 | 1014.0 |
| 20260903030518 | 12 | 10 | 19.3 | 32.2 | 0.00 | 0.00 | 0.00 | 75 | 1014.0 |
| 20260903030023 | 12 | 9 | 17.7 | 32.2 | 0.00 | 0.00 | 0.00 | 75 | 1013.9 |
| 20260903025515 | 12 | 8 | 17.7 | 29.0 | 0.00 | 0.00 | 0.00 | 74 | 1014.0 |
| 20260903025014 | 12 | 358 | 14.5 | 33.8 | 0.00 | 0.00 | 0.00 | 75 | 1013.9 |
| 20260903024518 | 12 | 9 | 20.9 | 33.8 | 0.00 | 0.00 | 0.00 | 74 | 1013.8 |
| 20260903024019 | 12 | 345 | 17.7 | 30.6 | 0.00 | 0.00 | 0.00 | 75 | 1013.8 |
| 20260903023516 | 12 | 347 | 14.5 | 30.6 | 0.00 | 0.00 | 0.00 | 74 | 1013.9 |
| 20260903023033 | 12 | 8 | 17.7 | 32.2 | 0.00 | 0.00 | 0.00 | 74 | 1014.0 |
| 20260903022519 | 12 | 17 | 16.1 | 32.2 | 0.00 | 0.00 | 0.00 | 74 | 1014.0 |
| 20260903022002 | 13 | 356 | 19.3 | 32.2 | 0.00 | 0.00 | 0.00 | 75 | 1014.1 |
| 20260903021510 | 12 | 343 | 17.7 | 33.8 | 0.00 | 0.00 | 0.00 | 78 | 1014.0 |
| 20260903021007 | 12 | 339 | 22.5 | 33.8 | 0.00 | 0.00 | 0.00 | 77 | 1014.0 |
| 20260903020503 | 12 | 29 | 14.5 | 30.6 | 0.00 | 0.00 | 0.00 | 78 | 1014.1 |
| 20260903020011 | 12 | 13 | 14.5 | 33.8 | 0.00 | 0.00 | 0.00 | 78 | 1014.3 |
| 20260903015503 | 12 | 349 | 14.5 | 35.4 | 0.00 | 0.00 | 0.00 | 78 | 1014.4 |
| 20260903015003 | 12 | 2 | 17.7 | 35.4 | 0.00 | 0.00 | 0.00 | 80 | 1014.3 |
| 20260903014504 | 11 | 352 | 19.3 | 35.4 | 0.00 | 0.00 | 0.00 | 80 | 1014.3 |
| 20260903014004 | 11 | 331 | 20.9 | 35.4 | 0.00 | 0.00 | 0.00 | 79 | 1014.4 |
| 20260903013504 | 11 | 343 | 22.5 | 33.8 | 0.00 | 0.00 | 0.00 | 79 | 1014.5 |
| 20260903013004 | 11 | 358 | 22.5 | 32.2 | 0.00 | 0.00 | 0.00 | 81 | 1014.5 |
| 20260903012503 | 11 | 358 | 19.3 | 35.4 | 0.00 | 0.00 | 0.00 | 81 | 1014.4 |
| 20260903012004 | 10 | 337 | 16.1 | 35.4 | 0.00 | 0.00 | 0.00 | 82 | 1014.5 |
| 20260903011504 | 10 | 338 | 19.3 | 30.6 | 0.00 | 0.00 | 0.00 | 82 | 1014.4 |
| 20260903011004 | 10 | 351 | 17.7 | 30.6 | 0.00 | 0.00 | 0.00 | 82 | 1014.4 |
| 20260903010505 | 10 | 353 | 17.7 | 30.6 | 0.00 | 0.00 | 0.00 | 82 | 1014.3 |
| 20260903010004 | 10 | 337 | 19.3 | 33.8 | 0.00 | 0.00 | 0.00 | 81 | 1014.3 |
| 20260903005503 | 10 | 335 | 24.1 | 33.8 | 0.00 | 0.00 | 0.00 | 79 | 1014.1 |
| 20260903005006 | 10 | 14 | 20.9 | 35.4 | 0.00 | 0.00 | 0.00 | 79 | 1014.0 |
| 20260903004502 | 10 | 339 | 24.1 | 35.4 | 0.00 | 0.00 | 0.00 | 78 | 1014.0 |
| 20260903004004 | 10 | 14 | 19.3 | 35.4 | 0.00 | 0.00 | 0.00 | 79 | 1013.9 |
| 20260903003503 | 10 | 357 | 22.5 | 35.4 | 0.00 | 0.00 | 0.00 | 78 | 1013.9 |
| 20260903003004 | 10 | 354 | 20.9 | 33.8 | 0.00 | 0.00 | 0.00 | 78 | 1013.8 |
| 20260903002507 | 10 | 11 | 16.1 | 33.8 | 0.00 | 0.00 | 0.00 | 78 | 1013.8 |
| 20260903002007 | 10 | 339 | 20.9 | 33.8 | 0.00 | 0.00 | 0.00 | 78 | 1013.6 |
| 20260903001506 | 10 | 7 | 19.3 | 32.2 | 0.00 | 0.00 | 0.00 | 78 | 1013.6 |
| 20260903001004 | 10 | 23 | 17.7 | 29.0 | 0.00 | 0.00 | 0.00 | 79 | 1013.5 |
| 20260903000503 | 10 | 14 | 17.7 | 32.2 | 0.00 | 0.00 | 0.00 | 78 | 1013.5 |
| 20260903000003 | 10 | 333 | 22.5 | 32.2 | 0.00 | 0.00 | 0.00 | 78 | 1013.5 |
| 20260902235503 | 10 | 180 | 20.9 | 32.2 | 0.00 | 0.00 | 0.00 | 77 | 1013.6 |
| 20260902235004 | 10 | 2 | 19.3 | 33.8 | 0.00 | 0.00 | 0.00 | 78 | 1013.5 |
| 20260902234504 | 10 | 318 | 19.3 | 40.2 | 0.00 | 0.00 | 0.00 | 77 | 1013.5 |
| 20260902234008 | 10 | 349 | 19.3 | 40.2 | 0.00 | 0.00 | 0.00 | 77 | 1013.5 |
| 20260902233504 | 10 | 350 | 17.7 | 37.0 | 0.00 | 0.00 | 0.00 | 77 | 1013.5 |
| 20260902233010 | 10 | 23 | 20.9 | 37.0 | 0.00 | 0.00 | 0.00 | 76 | 1013.4 |
| 20260902232507 | 10 | 333 | 22.5 | 35.4 | 0.00 | 0.00 | 0.00 | 75 | 1013.3 |
| 20260902232004 | 10 | 4 | 19.3 | 35.4 | 0.00 | 0.00 | 0.00 | 75 | 1013.2 |
| 20260902231509 | 10 | 22 | 17.7 | 35.4 | 0.00 | 0.00 | 0.00 | 74 | 1013.3 |
| 20260902231006 | 10 | 4 | 17.7 | 33.8 | 0.00 | 0.00 | 0.00 | 75 | 1013.2 |
| 20260902230505 | 10 | 354 | 16.1 | 32.2 | 0.00 | 0.00 | 0.00 | 75 | 1013.1 |
| 20260902230004 | 10 | 18 | 14.5 | 32.2 | 0.00 | 0.00 | 0.00 | 74 | 1013.0 |
| 20260902225505 | 10 | 69 | 11.3 | 27.4 | 0.00 | 0.00 | 0.00 | 75 | 1012.9 |
| 20260902225004 | 10 | 19 | 11.3 | 27.4 | 0.00 | 0.00 | 0.00 | 75 | 1013.0 |
| 20260902224513 | 10 | 21 | 11.3 | 27.4 | 0.00 | 0.00 | 0.00 | 75 | 1012.9 |
| 20260902224008 | 10 | 43 | 8.0 | 27.4 | 0.00 | 0.00 | 0.00 | 75 | 1012.9 |
| 20260902223504 | 9 | 22 | 11.3 | 30.6 | 0.00 | 0.00 | 0.00 | 76 | 1013.0 |
| 20260902223006 | 9 | 358 | 11.3 | 30.6 | 0.00 | 0.00 | 0.00 | 76 | 1013.2 |
| 20260902222503 | 8 | 20 | 16.1 | 25.7 | 0.00 | 0.00 | 0.00 | 76 | 1013.1 |
| 20260902222004 | 8 | 354 | 14.5 | 24.1 | 0.00 | 0.00 | 0.00 | 78 | 1013.0 |
| 20260902221508 | 8 | 2 | 12.9 | 25.7 | 0.00 | 0.00 | 0.00 | 78 | 1013.0 |
| 20260902221004 | 8 | 10 | 9.7 | 25.7 | 0.00 | 0.00 | 0.00 | 78 | 1012.8 |
| 20260902220504 | 8 | 13 | 16.1 | 29.0 | 0.00 | 0.00 | 0.00 | 78 | 1012.8 |
| 20260902220008 | 8 | 15 | 12.9 | 29.0 | 0.00 | 0.00 | 0.00 | 78 | 1012.6 |
| 20260902215504 | 8 | 1 | 16.1 | 27.4 | 0.00 | 0.00 | 0.00 | 78 | 1012.7 |
| 20260902215007 | 8 | 23 | 14.5 | 27.4 | 0.00 | 0.00 | 0.00 | 77 | 1012.5 |
| 20260902214511 | 8 | 18 | 16.1 | 27.4 | 0.00 | 0.00 | 0.00 | 77 | 1012.4 |
| 20260902214006 | 8 | 15 | 14.5 | 27.4 | 0.00 | 0.00 | 0.00 | 77 | 1012.3 |
| 20260902213507 | 8 | 18 | 16.1 | 27.4 | 0.00 | 0.00 | 0.00 | 76 | 1012.2 |
| 20260902213004 | 8 | 354 | 14.5 | 33.8 | 0.00 | 0.00 | 0.00 | 76 | 1012.0 |
| 20260902212507 | 8 | 11 | 14.5 | 33.8 | 0.00 | 0.00 | 0.00 | 76 | 1011.8 |
| 20260902212005 | 7 | 1 | 9.7 | 22.5 | 0.00 | 0.00 | 0.00 | 76 | 1011.9 |
| 20260902211507 | 7 | 355 | 11.3 | 20.9 | 0.00 | 0.00 | 0.00 | 76 | 1011.8 |
| 20260902211011 | 8 | 39 | 8.0 | 22.5 | 0.00 | 0.00 | 0.00 | 75 | 1011.7 |
| 20260902210504 | 8 | 18 | 9.7 | 25.7 | 0.00 | 0.00 | 0.00 | 75 | 1011.5 |
| 20260902210010 | 8 | 346 | 14.5 | 25.7 | 0.00 | 0.00 | 0.00 | 75 | 1011.5 |
| 20260902205505 | 8 | 7 | 14.5 | 27.4 | 0.00 | 0.00 | 0.00 | 75 | 1011.4 |
| 20260902205003 | 8 | 344 | 16.1 | 29.0 | 0.00 | 0.00 | 0.00 | 74 | 1011.5 |
| 20260902204513 | 8 | 351 | 17.7 | 29.0 | 0.00 | 0.00 | 0.00 | 74 | 1011.4 |
| 20260902204007 | 8 | 337 | 17.7 | 27.4 | 0.00 | 0.00 | 0.00 | 74 | 1011.3 |
| 20260902203504 | 8 | 351 | 17.7 | 29.0 | 0.00 | 0.00 | 0.00 | 74 | 1011.3 |
| 20260902203013 | 8 | 2 | 16.1 | 30.6 | 0.00 | 0.00 | 0.00 | 74 | 1011.3 |
| 20260902202509 | 8 | 341 | 12.9 | 30.6 | 0.00 | 0.00 | 0.00 | 74 | 1011.3 |
| 20260902202008 | 8 | 349 | 16.1 | 30.6 | 0.00 | 0.00 | 0.00 | 74 | 1011.3 |
| 20260902201511 | 8 | 7 | 17.7 | 30.6 | 0.00 | 0.00 | 0.00 | 74 | 1011.3 |
| 20260902201007 | 7 | 341 | 16.1 | 27.4 | 0.00 | 0.00 | 0.00 | 75 | 1011.3 |
| 20260902200511 | 7 | 343 | 14.5 | 27.4 | 0.00 | 0.00 | 0.00 | 75 | 1011.3 |
| 20260902200005 | 7 | 339 | 16.1 | 27.4 | 0.00 | 0.00 | 0.00 | 75 | 1011.3 |
| 20260902195509 | 7 | 353 | 16.1 | 25.7 | 0.00 | 0.00 | 0.00 | 76 | 1011.3 |
| 20260902195008 | 7 | 347 | 9.7 | 19.3 | 0.00 | 0.00 | 0.00 | 77 | 1011.2 |
| 20260902194524 | 7 | 358 | 9.7 | 19.3 | 0.00 | 0.00 | 0.00 | 77 | 1011.3 |
| 20260902194008 | 7 | 7 | 9.7 | 24.1 | 0.00 | 0.00 | 0.00 | 77 | 1011.2 |
| 20260902193508 | 7 | 8 | 12.9 | 24.1 | 0.00 | 0.00 | 0.00 | 76 | 1011.3 |
| 20260902193011 | 7 | 15 | 12.9 | 22.5 | 0.00 | 0.00 | 0.00 | 77 | 1011.0 |
| 20260902192510 | 7 | 22 | 9.7 | 20.9 | 0.00 | 0.00 | 0.00 | 77 | 1010.9 |
| 20260902192007 | 7 | 354 | 11.3 | 20.9 | 0.00 | 0.00 | 0.00 | 77 | 1010.9 |
| 20260902191518 | 7 | 14 | 8.0 | 17.7 | 0.00 | 0.00 | 0.00 | 77 | 1010.9 |
| 20260902191009 | 7 | 27 | 6.4 | 16.1 | 0.00 | 0.00 | 0.00 | 76 | 1010.9 |
| 20260902190509 | 7 | 345 | 9.7 | 16.1 | 0.00 | 0.00 | 0.00 | 76 | 1010.9 |
| 20260902190017 | 7 | 337 | 4.8 | 16.1 | 0.00 | 0.00 | 0.00 | 75 | 1010.7 |
| 20260902185508 | 7 | 20 | 6.4 | 12.9 | 0.00 | 0.00 | 0.00 | 75 | 1010.8 |
| 20260902185004 | 7 | 36 | 4.8 | 11.3 | 0.00 | 0.00 | 0.00 | 75 | 1010.7 |
| 20260902184523 | 7 | 37 | 4.8 | 14.5 | 0.00 | 0.00 | 0.00 | 76 | 1010.7 |
| 20260902184011 | 7 | 30 | 4.8 | 14.5 | 0.00 | 0.00 | 0.00 | 76 | 1010.6 |
| 20260902183510 | 7 | 37 | 6.4 | 12.9 | 0.00 | 0.00 | 0.00 | 77 | 1010.7 |
| 20260902183014 | 6 | 37 | 3.2 | 14.5 | 0.00 | 0.00 | 0.00 | 77 | 1010.8 |
| 20260902182507 | 6 | 14 | 8.0 | 14.5 | 0.00 | 0.00 | 0.00 | 76 | 1010.9 |
| 20260902182009 | 7 | 337 | 8.0 | 16.1 | 0.00 | 0.00 | 0.00 | 76 | 1011.0 |
| 20260902181519 | 7 | 1 | 9.7 | 16.1 | 0.00 | 0.00 | 0.00 | 76 | 1010.9 |
| 20260902181011 | 7 | 4 | 8.0 | 14.5 | 0.00 | 0.00 | 0.00 | 75 | 1011.0 |
| 20260902180511 | 7 | 11 | 3.2 | 8.0 | 0.00 | 0.00 | 0.00 | 75 | 1011.0 |
| 20260902180018 | 7 | 16 | 3.2 | 9.7 | 0.00 | 0.00 | 0.00 | 75 | 1010.9 |
| 20260902175512 | 7 | 14 | 4.8 | 9.7 | 0.00 | 0.00 | 0.00 | 75 | 1010.8 |
| 20260902175012 | 7 | 20 | 4.8 | 11.3 | 0.00 | 0.00 | 0.00 | 75 | 1010.7 |
| 20260902174515 | 7 | 2 | 6.4 | 11.3 | 0.00 | 0.00 | 0.00 | 74 | 1010.7 |
| 20260902174017 | 7 | 20 | 6.4 | 9.7 | 0.00 | 0.00 | 0.00 | 74 | 1010.7 |
| 20260902173514 | 7 | 22 | 3.2 | 9.7 | 0.00 | 0.00 | 0.00 | 74 | 1010.6 |
| 20260902173021 | 7 | 16 | 3.2 | 9.7 | 0.00 | 0.00 | 0.00 | 74 | 1010.6 |
| 20260902172510 | 7 | 355 | 4.8 | 14.5 | 0.00 | 0.00 | 0.00 | 73 | 1010.6 |
| 20260902172009 | 7 | 3 | 6.4 | 14.5 | 0.00 | 0.00 | 0.00 | 73 | 1010.6 |
| 20260902171516 | 7 | 15 | 4.8 | 11.3 | 0.00 | 0.00 | 0.00 | 74 | 1010.6 |
| 20260902171013 | 7 | 29 | 4.8 | 9.7 | 0.00 | 0.00 | 0.00 | 74 | 1010.6 |
| 20260902170508 | 7 | 18 | 1.6 | 9.7 | 0.00 | 0.00 | 0.00 | 74 | 1010.6 |
| 20260902170024 | 7 | 18 | 4.8 | 11.3 | 0.00 | 0.00 | 0.00 | 74 | 1010.7 |
| 20260902165513 | 7 | 5 | 6.4 | 12.9 | 0.00 | 0.00 | 0.00 | 73 | 1011.0 |
| 20260902165013 | 7 | 349 | 8.0 | 12.9 | 0.00 | 0.00 | 0.00 | 73 | 1010.9 |
| 20260902164523 | 7 | 8 | 6.4 | 9.7 | 0.00 | 0.00 | 0.00 | 73 | 1011.0 |
| 20260902164010 | 7 | 331 | 4.8 | 12.9 | 0.00 | 0.00 | 0.00 | 73 | 1011.1 |
| 20260902163513 | 7 | 360 | 4.8 | 12.9 | 0.00 | 0.00 | 0.00 | 72 | 1011.1 |
| 20260902163027 | 7 | 17 | 4.8 | 11.3 | 0.00 | 0.00 | 0.00 | 72 | 1011.1 |
| 20260902162517 | 8 | 336 | 4.8 | 11.3 | 0.00 | 0.00 | 0.00 | 72 | 1011.2 |
| 20260902162013 | 8 | 8 | 4.8 | 9.7 | 0.00 | 0.00 | 0.00 | 73 | 1011.1 |
| 20260902161529 | 8 | 51 | 3.2 | 9.7 | 0.00 | 0.00 | 0.00 | 73 | 1011.1 |
| 20260902161016 | 8 | 57 | 1.6 | 11.3 | 0.00 | 0.00 | 0.00 | 73 | 1011.1 |
| 20260902160514 | 8 | 6 | 3.2 | 11.3 | 0.00 | 0.00 | 0.00 | 74 | 1011.2 |
| 20260902160027 | 8 | 30 | 3.2 | 9.7 | 0.00 | 0.00 | 0.00 | 74 | 1011.3 |
| 20260902155519 | 8 | 18 | 3.2 | 8.0 | 0.00 | 0.00 | 0.00 | 74 | 1011.4 |
| 20260902155012 | 8 | 26 | 0.0 | 9.7 | 0.00 | 0.00 | 0.00 | 74 | 1011.5 |
| 20260902154544 | 8 | 12 | 3.2 | 11.3 | 0.00 | 0.00 | 0.00 | 74 | 1011.5 |
| 20260902154019 | 8 | 15 | 6.4 | 19.3 | 0.00 | 0.00 | 0.00 | 74 | 1011.6 |
| 20260902153512 | 8 | 355 | 6.4 | 19.3 | 0.00 | 0.00 | 0.00 | 74 | 1011.6 |
| 20260902153025 | 8 | 344 | 9.7 | 19.3 | 0.00 | 0.00 | 0.00 | 74 | 1011.7 |
| 20260902152515 | 8 | 3 | 9.7 | 19.3 | 0.00 | 0.00 | 0.00 | 75 | 1011.7 |
| 20260902152013 | 8 | 354 | 9.7 | 16.1 | 0.00 | 0.00 | 0.00 | 75 | 1011.6 |
| 20260902151536 | 8 | 358 | 9.7 | 17.7 | 0.00 | 0.00 | 0.00 | 75 | 1011.6 |
| 20260902151019 | 8 | 330 | 9.7 | 17.7 | 0.00 | 0.00 | 0.00 | 75 | 1011.6 |
| 20260902150518 | 8 | 345 | 9.7 | 17.7 | 0.00 | 0.00 | 0.00 | 75 | 1011.6 |
| 20260902150026 | 8 | 357 | 8.0 | 17.7 | 0.00 | 0.00 | 0.00 | 76 | 1011.6 |
| 20260902145513 | 8 | 359 | 6.4 | 12.9 | 0.00 | 0.00 | 0.00 | 76 | 1011.7 |
| 20260902145016 | 8 | 346 | 6.4 | 11.3 | 0.00 | 0.00 | 0.00 | 76 | 1011.7 |
| 20260902144524 | 8 | 18 | 6.4 | 11.3 | 0.00 | 0.00 | 0.00 | 76 | 1011.7 |
| 20260902144012 | 8 | 30 | 4.8 | 11.3 | 0.00 | 0.00 | 0.00 | 76 | 1011.7 |
| 20260902143516 | 8 | 6 | 6.4 | 11.3 | 0.00 | 0.00 | 0.00 | 76 | 1011.7 |
| 20260902143025 | 8 | 16 | 4.8 | 9.7 | 0.00 | 0.00 | 0.00 | 76 | 1011.6 |
| 20260902142506 | 8 | 6 | 4.8 | 9.7 | 0.00 | 0.00 | 0.00 | 76 | 1011.7 |
| 20260902142005 | 8 | 23 | 3.2 | 6.4 | 0.00 | 0.00 | 0.00 | 75 | 1011.8 |
| 20260902141507 | 8 | 19 | 3.2 | 9.7 | 0.00 | 0.00 | 0.00 | 75 | 1011.8 |
| 20260902141007 | 8 | 1 | 4.8 | 12.9 | 0.00 | 0.00 | 0.00 | 74 | 1011.8 |
| 20260902140506 | 8 | 355 | 6.4 | 12.9 | 0.00 | 0.00 | 0.00 | 73 | 1011.8 |
| 20260902140015 | 9 | 345 | 8.0 | 12.9 | 0.00 | 0.00 | 0.00 | 72 | 1011.8 |
| 20260902135509 | 9 | 338 | 8.0 | 19.3 | 0.00 | 0.00 | 0.00 | 71 | 1011.8 |
| 20260902135005 | 10 | 338 | 8.0 | 19.3 | 0.00 | 0.00 | 0.00 | 71 | 1011.8 |
| 20260902134517 | 10 | 322 | 6.4 | 17.7 | 0.00 | 0.00 | 0.00 | 70 | 1011.8 |
| 20260902134007 | 10 | 326 | 8.0 | 17.7 | 0.00 | 0.00 | 0.00 | 71 | 1011.9 |
| 20260902133515 | 10 | 313 | 6.4 | 16.1 | 0.00 | 0.00 | 0.00 | 71 | 1012.0 |
| 20260902133021 | 10 | 341 | 8.0 | 14.5 | 0.00 | 0.00 | 0.00 | 73 | 1012.0 |
| 20260902132508 | 10 | 340 | 8.0 | 19.3 | 0.00 | 0.00 | 0.00 | 73 | 1012.1 |
| 20260902132015 | 10 | 342 | 8.0 | 19.3 | 0.00 | 0.00 | 0.00 | 73 | 1012.2 |
| 20260902131527 | 10 | 360 | 8.0 | 12.9 | 0.00 | 0.00 | 0.00 | 73 | 1012.2 |
| 20260902131004 | 9 | 332 | 6.4 | 12.9 | 0.00 | 0.00 | 0.00 | 73 | 1012.2 |
| 20260902130505 | 9 | 359 | 8.0 | 12.9 | 0.00 | 0.00 | 0.00 | 73 | 1012.4 |
| 20260902130024 | 9 | 346 | 6.4 | 12.9 | 0.00 | 0.00 | 0.00 | 73 | 1012.4 |
| 20260902125506 | 9 | 352 | 4.8 | 9.7 | 0.00 | 0.00 | 0.00 | 73 | 1012.4 |
| 20260902125008 | 9 | 356 | 3.2 | 9.7 | 0.00 | 0.00 | 0.00 | 73 | 1012.5 |
| 20260902124509 | 9 | 12 | 3.2 | 12.9 | 0.00 | 0.00 | 0.00 | 73 | 1012.6 |
| 20260902124009 | 9 | 338 | 8.0 | 12.9 | 0.00 | 0.00 | 0.00 | 73 | 1012.6 |
| 20260902123512 | 9 | 357 | 3.2 | 8.0 | 0.00 | 0.00 | 0.00 | 73 | 1012.7 |
| 20260902123024 | 9 | 308 | 1.6 | 4.8 | 0.00 | 0.00 | 0.00 | 73 | 1012.7 |
| 20260902122514 | 9 | 308 | 3.2 | 4.8 | 0.00 | 0.00 | 0.00 | 72 | 1012.8 |
| 20260902122009 | 9 | 308 | 0.0 | 4.8 | 0.00 | 0.00 | 0.00 | 71 | 1012.8 |
| 20260902121526 | 9 | 308 | 0.0 | 6.4 | 0.00 | 0.00 | 0.00 | 71 | 1012.8 |
| 20260902121017 | 9 | 313 | 1.6 | 8.0 | 0.00 | 0.00 | 0.00 | 72 | 1012.7 |
| 20260902120509 | 9 | 354 | 3.2 | 8.0 | 0.00 | 0.00 | 0.00 | 71 | 1012.7 |
| 20260902120032 | 9 | 73 | 1.6 | 9.7 | 0.00 | 0.00 | 0.00 | 72 | 1012.7 |
| 20260902115510 | 9 | 49 | 3.2 | 9.7 | 0.00 | 0.00 | 0.00 | 72 | 1012.8 |
| 20260902115005 | 9 | 19 | 3.2 | 9.7 | 0.00 | 0.00 | 0.00 | 72 | 1012.8 |
| 20260902114518 | 9 | 18 | 4.8 | 9.7 | 0.00 | 0.00 | 0.00 | 73 | 1012.9 |
| 20260902114010 | 9 | 31 | 4.8 | 9.7 | 0.00 | 0.00 | 0.00 | 73 | 1012.9 |
| 20260902113510 | 9 | 32 | 3.2 | 9.7 | 0.00 | 0.00 | 0.00 | 73 | 1012.9 |
| 20260902113014 | 9 | 70 | 1.6 | 14.5 | 0.00 | 0.00 | 0.00 | 73 | 1013.0 |
| 20260902112509 | 10 | 29 | 4.8 | 14.5 | 0.00 | 0.00 | 0.00 | 73 | 1013.1 |
| 20260902112014 | 9 | 349 | 6.4 | 14.5 | 0.00 | 0.00 | 0.00 | 74 | 1013.1 |
| 20260902111521 | 10 | 353 | 9.7 | 16.1 | 0.00 | 0.00 | 0.00 | 74 | 1013.2 |
| 20260902111013 | 10 | 321 | 9.7 | 16.1 | 0.00 | 0.00 | 0.00 | 74 | 1013.3 |
| 20260902110512 | 9 | 330 | 6.4 | 16.1 | 0.00 | 0.00 | 0.00 | 74 | 1013.4 |
| 20260902110025 | 9 | 317 | 8.0 | 16.1 | 0.00 | 0.00 | 0.00 | 75 | 1013.5 |